COSMOS 1275 DEB, 12771

Orbit data source: Space-Track

COSMOS 1275 DEB, 12771 is space debris in LEO originally from a launch on Thu, 04 Jun 1981 UTC launched from the Plesetsk Missile And Space Complex (PKMTR). Debris objects in space refer to the collection of defunct objects orbiting the Earth. Examples of debris include non-operational satellites, rocket bodies, and fragments generated from explosions, collisions, or faulty payload assembly.

Loading next visibility...
Identifier
12771, 1981-053DQ
Orbit
LEO
Country
Flag of CISCIS
Related business
Manufacturer
Unknown
Mission
Spacecraft
Bus & Motor
Unknown
Mass
Unknown
Launch date (UTC)
1981-06-04 (45 years ago)
Launch vehicle
Unknown
Launch site
Plesetsk Missile And Space Complex (PKMTR)
Object type
Payload
Rocket body
Debris
Shape & HBR
Unknown shape, 0.1 m
Radar Cross Section
Small (<0.1 m²)

Expand to show TLE details & history
Last TLE update: 10 hours ago

TLE from 10 hours ago
0 COSMOS 1275 DEB
1 12771U 81053DQ  26034.51057981  .00001259  00000-0  13359-2 0  9996
2 12771  82.8658 226.0979 0150642 159.1961 231.1355 13.68768114201774
Epoch: 2026-02-03T12:15Z
TLE epoch observation values (Epoch: 2026-02-03T12:15:14.095Z)
Latitude
28.8014°
Longitude
-87.47575°
Altitude
1,078.344 km
Speed
7.28 km/s
True Right ascension
15h 20m 05s
True Declination
28° 39' 46"
Sunlit
Object was in daylight at epoch
Visualization orbit readout
Latitude
Unknown
Longitude
Unknown
Altitude
Unknown
Speed
Unknown
Apparent Right ascension
Unknown
Apparent Declination
Unknown
Sunlit
N/A
Visualization observer readout
Local Sidereal Time
00:13:22
Azimuth
Unknown
Elevation
Unknown
Doppler factor
Unknown
Orbital elements
Apogee altitude
1,112.32 km
Perigee altitude
889.993 km
Semi-major axis
7,379.293 km
Eccentricity
0.01506
Inclination
82.8658°
RAAN
226.0979°
Arg. of periapsis
159.1961°
True anomaly
229.80722°
Mean anomaly
231.1355°
Eccentric anomaly
230.46979°
Mean motion
3.4239 °/min
Orbital period
105.14 mins
BSTAR
0.0013359
Loading maneuver chart data...
Computing Atmospheric mass density...
Loading historical data...
Loading historical data...
Loading historical data...
Loading historical data...
Loading historical data...
Loading historical data...
Loading historical data...

Documentation

Showing up to 5 results
|